TimeCDT,TemperatureF,Dew PointF,Humidity,Sea Level PressureIn,VisibilityMPH,Wind Direction,Wind SpeedMPH,Gust SpeedMPH,PrecipitationIn,Events,Conditions,WindDirDegrees,DateUTC
12:15 AM,62.6,51.8,68,29.77,-9999.0,SE,13.8,21.9,N/A,,Clear,140,2013-10-11 05:15:00
12:35 AM,62.6,51.8,68,29.77,10.0,SE,12.7,18.4,N/A,,Clear,140,2013-10-11 05:35:00
12:55 AM,62.6,51.8,68,29.78,10.0,SSE,11.5,17.3,N/A,,Clear,150,2013-10-11 05:55:00
1:15 AM,62.6,51.8,68,29.78,10.0,SSE,12.7,19.6,N/A,,Clear,150,2013-10-11 06:15:00
1:55 AM,60.8,51.8,72,29.77,10.0,SSE,13.8,-,N/A,,Clear,150,2013-10-11 06:55:00
2:15 AM,60.8,51.8,72,29.77,10.0,SSE,11.5,18.4,N/A,,Clear,160,2013-10-11 07:15:00
2:35 AM,60.8,51.8,72,29.77,10.0,SSE,11.5,19.6,N/A,,Clear,150,2013-10-11 07:35:00
2:55 AM,60.8,51.8,72,29.79,10.0,SSE,12.7,19.6,N/A,,Clear,160,2013-10-11 07:55:00
3:15 AM,60.8,51.8,72,29.77,10.0,SSE,11.5,-,N/A,,Clear,150,2013-10-11 08:15:00
3:35 AM,60.8,51.8,72,29.76,10.0,SSE,11.5,18.4,N/A,,Clear,150,2013-10-11 08:35:00
3:55 AM,59.0,51.8,77,29.75,10.0,SE,12.7,-,N/A,,Clear,140,2013-10-11 08:55:00
4:15 AM,59.0,51.8,77,29.74,10.0,SE,13.8,20.7,N/A,,Clear,140,2013-10-11 09:15:00
4:35 AM,60.8,51.8,72,29.73,10.0,SSE,13.8,20.7,N/A,,Clear,150,2013-10-11 09:35:00
4:55 AM,59.0,51.8,77,29.72,10.0,SSE,13.8,20.7,N/A,,Clear,150,2013-10-11 09:55:00
5:15 AM,60.8,51.8,72,29.72,10.0,SSE,13.8,20.7,N/A,,Clear,150,2013-10-11 10:15:00
5:35 AM,60.8,53.6,77,29.71,10.0,SE,13.8,21.9,N/A,,Clear,140,2013-10-11 10:35:00
5:55 AM,59.0,53.6,82,29.70,10.0,SE,12.7,21.9,N/A,,Clear,140,2013-10-11 10:55:00
6:15 AM,59.0,53.6,82,29.69,10.0,SE,13.8,20.7,N/A,,Clear,130,2013-10-11 11:15:00
6:35 AM,59.0,53.6,82,29.68,10.0,SE,15.0,21.9,N/A,,Clear,130,2013-10-11 11:35:00
6:55 AM,57.2,55.4,94,29.68,10.0,SE,16.1,25.3,N/A,,Clear,130,2013-10-11 11:55:00
7:15 AM,57.2,55.4,94,29.68,10.0,SE,15.0,20.7,N/A,,Clear,140,2013-10-11 12:15:00
7:35 AM,59.0,55.4,88,29.68,10.0,SE,13.8,20.7,N/A,,Clear,140,2013-10-11 12:35:00
7:55 AM,59.0,55.4,88,29.67,10.0,SE,15.0,21.9,N/A,,Clear,140,2013-10-11 12:55:00
8:15 AM,59.0,55.4,88,29.64,10.0,SE,13.8,21.9,N/A,,Partly Cloudy,130,2013-10-11 13:15:00
8:35 AM,59.0,55.4,88,29.64,10.0,SE,11.5,21.9,N/A,,Partly Cloudy,140,2013-10-11 13:35:00
8:55 AM,59.0,55.4,88,29.68,10.0,SSE,18.4,26.5,N/A,,Scattered Clouds,150,2013-10-11 13:55:00
9:15 AM,59.0,57.2,94,29.66,10.0,SSE,15.0,23.0,N/A,,Partly Cloudy,150,2013-10-11 14:15:00
9:35 AM,59.0,57.2,94,29.66,10.0,SSE,16.1,26.5,N/A,,Mostly Cloudy,150,2013-10-11 14:35:00
9:55 AM,57.2,57.2,100,29.64,9.0,SSE,15.0,24.2,N/A,Rain,Light Rain,150,2013-10-11 14:55:00
10:15 AM,59.0,59.0,100,29.65,10.0,SSE,11.5,19.6,N/A,,Overcast,160,2013-10-11 15:15:00
10:35 AM,59.0,59.0,100,29.65,10.0,SSE,13.8,-,N/A,,Overcast,150,2013-10-11 15:35:00
10:55 AM,60.8,59.0,94,29.64,10.0,SSE,12.7,21.9,N/A,,Overcast,160,2013-10-11 15:55:00
11:15 AM,60.8,60.8,100,29.63,9.0,SSE,15.0,21.9,N/A,,Overcast,160,2013-10-11 16:15:00
11:35 AM,60.8,60.8,100,29.63,10.0,SSE,17.3,25.3,N/A,,Overcast,160,2013-10-11 16:35:00
11:55 AM,62.6,60.8,94,29.62,10.0,SSE,19.6,26.5,N/A,,Overcast,150,2013-10-11 16:55:00
12:15 PM,64.4,60.8,88,29.61,10.0,SSE,19.6,28.8,N/A,,Scattered Clouds,150,2013-10-11 17:15:00
12:35 PM,64.4,60.8,88,29.60,10.0,SSE,21.9,27.6,N/A,,Mostly Cloudy,150,2013-10-11 17:35:00
12:55 PM,68.0,60.8,78,29.58,10.0,SSE,19.6,35.7,N/A,,Overcast,160,2013-10-11 17:55:00
1:15 PM,69.8,59.0,68,29.56,10.0,SSE,24.2,35.7,N/A,,Mostly Cloudy,160,2013-10-11 18:15:00
1:35 PM,69.8,59.0,68,29.57,10.0,South,25.3,32.2,N/A,,Mostly Cloudy,170,2013-10-11 18:35:00
1:55 PM,69.8,59.0,68,29.56,10.0,SSE,20.7,34.5,N/A,,Mostly Cloudy,160,2013-10-11 18:55:00
2:15 PM,71.6,57.2,60,29.56,10.0,South,21.9,34.5,N/A,,Scattered Clouds,170,2013-10-11 19:15:00
2:35 PM,71.6,55.4,57,29.56,10.0,South,19.6,35.7,N/A,,Scattered Clouds,170,2013-10-11 19:35:00
2:55 PM,71.6,53.6,53,29.56,10.0,South,21.9,34.5,N/A,,Scattered Clouds,180,2013-10-11 19:55:00
3:15 PM,73.4,53.6,50,29.56,10.0,South,21.9,35.7,N/A,,Mostly Cloudy,170,2013-10-11 20:15:00
3:35 PM,75.2,53.6,47,29.55,10.0,South,21.9,35.7,N/A,,Scattered Clouds,170,2013-10-11 20:35:00
3:55 PM,75.2,51.8,44,29.56,10.0,South,23.0,40.3,N/A,,Clear,170,2013-10-11 20:55:00
4:15 PM,75.2,53.6,47,29.56,10.0,South,27.6,36.8,N/A,,Scattered Clouds,180,2013-10-11 21:15:00
4:35 PM,73.4,53.6,50,29.55,10.0,South,23.0,39.1,N/A,,Mostly Cloudy,180,2013-10-11 21:35:00
4:55 PM,75.2,53.6,47,29.55,10.0,South,21.9,32.2,N/A,,Mostly Cloudy,170,2013-10-11 21:55:00
5:15 PM,75.2,42.8,31,29.57,10.0,SW,20.7,38.0,N/A,,Mostly Cloudy,220,2013-10-11 22:15:00
5:35 PM,73.4,44.6,36,29.59,10.0,SW,25.3,36.8,N/A,,Partly Cloudy,230,2013-10-11 22:35:00
5:55 PM,71.6,46.4,41,29.61,10.0,SW,19.6,32.2,N/A,,Clear,230,2013-10-11 22:55:00
6:15 PM,69.8,46.4,43,29.63,10.0,SW,16.1,25.3,N/A,,Clear,230,2013-10-11 23:15:00
6:35 PM,68.0,44.6,43,29.64,10.0,SW,18.4,31.1,N/A,,Clear,230,2013-10-11 23:35:00
6:55 PM,66.2,46.4,49,29.65,10.0,WSW,16.1,25.3,N/A,,Clear,240,2013-10-11 23:55:00
7:15 PM,64.4,46.4,52,29.67,10.0,WSW,18.4,26.5,N/A,,Clear,240,2013-10-12 00:15:00
7:35 PM,62.6,46.4,55,29.68,10.0,WSW,13.8,25.3,N/A,,Clear,250,2013-10-12 00:35:00
7:55 PM,60.8,46.4,59,29.71,10.0,West,17.3,28.8,N/A,,Clear,260,2013-10-12 00:55:00
8:15 PM,59.0,44.6,59,29.72,10.0,West,17.3,23.0,N/A,,Clear,270,2013-10-12 01:15:00
8:35 PM,57.2,44.6,63,29.73,10.0,WSW,15.0,25.3,N/A,,Partly Cloudy,250,2013-10-12 01:35:00
8:55 PM,55.4,44.6,67,29.74,10.0,West,15.0,23.0,N/A,,Clear,260,2013-10-12 01:55:00
9:15 PM,53.6,44.6,72,29.75,10.0,WSW,13.8,20.7,N/A,,Clear,250,2013-10-12 02:15:00
9:35 PM,53.6,42.8,67,29.76,10.0,West,17.3,25.3,N/A,,Clear,260,2013-10-12 02:35:00
9:55 PM,53.6,42.8,67,29.77,10.0,WSW,13.8,20.7,N/A,,Clear,250,2013-10-12 02:55:00
10:15 PM,51.8,42.8,71,29.78,10.0,WSW,10.4,18.4,N/A,,Clear,250,2013-10-12 03:15:00
10:35 PM,51.8,42.8,71,29.79,10.0,WSW,11.5,17.3,N/A,,Clear,250,2013-10-12 03:35:00
10:55 PM,50.0,42.8,76,29.80,10.0,SW,8.1,13.8,N/A,,Clear,230,2013-10-12 03:55:00
11:15 PM,50.0,42.8,76,29.81,10.0,SW,6.9,-,N/A,,Clear,230,2013-10-12 04:15:00
11:35 PM,50.0,42.8,76,29.81,10.0,WSW,9.2,-,N/A,,Clear,240,2013-10-12 04:35:00
11:55 PM,50.0,42.8,76,29.81,10.0,WSW,8.1,-,N/A,,Clear,240,2013-10-12 04:55:00